[Date Prev][Date Next][Thread Prev][Thread Next] - [Date Index][Thread Index][Author Index]
2 Line ISS Keps 5-13
- Subject: [sarex] 2 Line ISS Keps 5-13
- From: "Dave Larsen PhD" <doc@xxxxxxxxxxx>
- Date: Mon, 13 May 2002 03:12:58 -0700
ISS
1 25544U 98067A 02133.15963422 .00055808 00000-0 68680-3 0 4364
2 25544 51.6372 229.0400 0008492 59.2029 13.7393 15.59646688198566
----
Via the sarex mailing list at AMSAT.ORG courtesy of AMSAT-NA.
To unsubscribe, send "unsubscribe sarex" to Majordomo@amsat.org
AMSAT Home